Tracking 27107 objects as of 20-Mar-2023
HD Live streaming from Space Station
objects crossing your sky now

STARLINK-2220

Track STARLINK-2220 now!
10-day predictions
STARLINK-2220 is classified as:


NORAD ID: 48570
Int'l Code: 2021-041T
Perigee: 553.4 km
Apogee: 555.4 km
Inclination: 53.1 °
Period: 95.6 minutes
Semi major axis: 6925 km
RCS: Unknown
Launch date: May 15, 2021
Source: United States (US)
Launch site: AIR FORCE EASTERN TEST RANGE (AFETR)
Your satellite tracking list
Your tracking list is empty




NASA's NSSDC Master Catalog

Two Line Element Set (TLE):
1 48570U 21041T   23078.98436654  .00015562  00000-0  10616-2 0  9992
2 48570  53.0540 335.5368 0001412 105.7313 254.3832 15.06390508101819
Source of the keplerian elements: AFSPC